Regional Weather Roundup
Issued by NWS Cleveland, OH

Home | Current Version | Previous Version | Text Only | Print | Product List | Glossary Off
Versions: 1 2 3 4 5 6 7 8 9 10 11 12 13 14 15 16 17 18 19 20 21 22 23 24 25 26 27 28 29 30 31 32 33 34 35 36 37 38 39 40 41 42 43 44 45 46 47 48 49 50

000
ASUS41 KCLE 180800
RWRCLE
OHIO REGIONAL WEATHER ROUNDUP
NATIONAL WEATHER SERVICE WILMINGTON, OH
300 AM EST MON DEC 18 2017

NOTE: "FAIR" INDICATES FEW OR NO CLOUDS BELOW 12,000 FEET WITH NO
SIGNIFICANT WEATHER AND/OR OBSTRUCTIONS TO VISIBILITY.

OHZ001>008-015>018-024>027-034-035-043-044-180900-
   NORTHWEST OHIO

CITY           SKY/WX    TMP DP  RH WIND       PRES   REMARKS
DEFIANCE       CLOUDY    38  33  82 SW8       30.02R
FINDLAY        CLOUDY    39  32  76 SW10      30.02S
TOLEDO EXPRESS CLOUDY    39  36  89 SW9       30.00F
TOLEDO EXEC    CLOUDY    38  34  85 SW9       30.02S
LIMA           CLOUDY    38  35  89 S10       30.04R
$$

OHZ009>014-019>023-028>033-038-089-180900-
   NORTHEAST OHIO

CITY           SKY/WX    TMP DP  RH WIND       PRES   REMARKS
CLE-HOPKINS    CLOUDY    39  33  79 SW9       30.06R
CLE-LAKEFRONT  CLOUDY    40  32  73 S10       30.03R
CUY CO. ARPT   NOT AVBL
LORAIN-ELYRIA  CLOUDY    36  29  75 SW7       30.04R
ASHTABULA      CLOUDY    36  33  89 S8        30.03S
AKRON-CANTON   CLOUDY    37  30  75 SW9       30.05R
WOOSTER        NOT AVBL
MANSFIELD      CLOUDY    38  33  82 SW9       30.04R
YOUNGSTOWN     CLOUDY    36  31  82 S8        30.03S
$$

OHZ042-051>053-060>062-070>072-077>081-180900-
  SOUTHWEST OHIO

CITY           SKY/WX    TMP DP  RH WIND       PRES   REMARKS
CINC-COVINGTON CLOUDY    41  41 100 S7        30.09R FOG
CINC-LUNKEN    CLOUDY    42  40  92 S6        30.12R
HAMILTON       CLOUDY    41  38  89 CALM      30.10R
DAYTON         NOT AVBL
WRIGHT-PAT AFB CLOUDY    40  39  93 S7        30.07S
DAYTON GENERAL CLOUDY    41  37  86 SW7       30.07R
WILMINGTON     CLOUDY    39  38  96 SW10      30.08S
$$

OHZ036-037-039>041-045>050-054>059-063>069-073>076-082>088-180900-
  CENTRAL AND SOUTHEAST OHIO

CITY           SKY/WX    TMP DP  RH WIND       PRES   REMARKS
COLUMBUS       CLOUDY    39  36  89 S7        30.08S
OSU AIRPORT    CLOUDY    39  36  89 S6        30.07S
BOLTON FIELD   NOT AVBL
RICKENBACK AFB NOT AVBL
NEWARK         CLOUDY    36  32  85 S5        30.08R
MARION         NOT AVBL
LANCASTER      CLOUDY    40  36  86 SW3       30.09S
ZANESVILLE     CLOUDY    39  33  79 SW6       30.09R
NEW PHILLY     FAIR      32  30  92 SE5       30.08R WCI  27
$$




USA.gov is the U.S. government's official web portal to all federal, state and local government web resources and services.